AV194 Weather Reports


Display with metric or nautical units.
time (UTC)temp
F
wind
direction
speed
MPH
gust
MPH
rain 1hr
in
rain 24hr
in
rain mn
in
humidity
%
barometer
mb
20260508142510 53 288 1.0 4.0 0.00 0.00 0.00 44 1008.8
20260508142015 53 175 1.0 4.0 0.00 0.00 0.00 46 1008.9
20260508141513 53 235 1.0 5.0 0.00 0.00 0.00 45 1009.0
20260508141010 54 248 2.0 7.0 0.00 0.00 0.00 42 1009.0
20260508140509 54 210 2.0 9.0 0.00 0.00 0.00 40 1009.0
20260508140019 55 175 2.0 9.0 0.00 0.00 0.00 42 1008.9
20260508135510 56 266 1.0 6.0 0.00 0.00 0.00 44 1008.9
20260508135010 56 285 0.0 5.0 0.00 0.00 0.00 43 1008.9
20260508134507 56 207 1.0 5.0 0.00 0.00 0.00 44 1009.0
20260508134006 55 228 2.0 9.0 0.00 0.00 0.00 44 1009.0
20260508133505 54 267 3.0 9.0 0.00 0.00 0.00 46 1009.1
20260508133004 54 334 1.0 5.0 0.00 0.00 0.00 45 1009.0
20260508132505 54 220 2.0 4.0 0.00 0.00 0.00 47 1009.0
20260508132003 53 225 1.0 3.0 0.00 0.00 0.00 46 1009.1
20260508131504 53 360 1.0 6.0 0.00 0.00 0.00 46 1009.1
20260508131004 53 292 1.0 6.0 0.00 0.00 0.00 45 1009.1
20260508130503 53 233 2.0 5.0 0.00 0.00 0.00 46 1009.1
20260508130005 54 244 1.0 6.0 0.00 0.00 0.00 45 1009.1
20260508125505 53 285 3.0 6.0 0.00 0.00 0.00 48 1009.1
20260508125103 53 244 2.0 7.0 0.00 0.00 0.00 49 1009.2
20260508124559 53 218 1.0 10.0 0.00 0.00 0.00 48 1009.2
20260508124058 53 257 4.0 8.0 0.00 0.00 0.00 48 1009.1
20260508123557 52 221 1.0 8.0 0.00 0.00 0.00 48 1009.1
20260508123114 52 289 3.0 8.0 0.00 0.00 0.00 48 1009.2
20260508122556 52 273 2.0 6.0 0.00 0.00 0.00 48 1009.1
20260508122056 52 355 1.0 3.0 0.00 0.00 0.00 51 1009.2
20260508121606 52 223 1.0 4.0 0.00 0.00 0.00 54 1009.2
20260508121053 51 213 0.0 5.0 0.00 0.00 0.00 54 1009.2
20260508120550 51 236 1.0 5.0 0.00 0.00 0.00 55 1009.2
20260508120105 49 248 1.0 3.0 0.00 0.00 0.00 60 1009.2
20260508115548 49 219 0.0 2.0 0.00 0.00 0.00 62 1009.2
20260508115046 48 259 0.0 4.0 0.00 0.00 0.00 65 1009.2
20260508114556 47 235 1.0 4.0 0.00 0.00 0.00 65 1009.1
20260508114043 46 225 1.0 2.0 0.00 0.00 0.00 65 1009.1
20260508113542 46 204 1.0 4.0 0.00 0.00 0.00 65 1009.1
20260508113041 45 221 0.0 4.0 0.00 0.00 0.00 67 1009.0
20260508112539 44 265 0.0 2.0 0.00 0.00 0.00 69 1009.1
20260508112037 43 208 0.0 2.0 0.00 0.00 0.00 74 1009.1
20260508111538 42 157 0.0 1.0 0.00 0.00 0.00 78 1009.1
20260508111035 41 140 0.0 1.0 0.00 0.00 0.00 83 1009.1
20260508110534 41 132 0.0 0.0 0.00 0.00 0.00 84 1009.1
20260508110033 40 132 0.0 0.0 0.00 0.00 0.00 86 1009.1
20260508105534 39 132 0.0 1.0 0.00 0.00 0.00 87 1009.1
20260508105031 39 132 0.0 1.0 0.00 0.00 0.00 88 1009.1
20260508104533 38 132 0.0 1.0 0.00 0.00 0.00 88 1009.1
20260508104031 38 131 0.0 0.0 0.00 0.00 0.00 88 1009.1
20260508103528 37 131 0.0 0.0 0.00 0.00 0.00 88 1008.9
20260508103033 37 131 0.0 0.0 0.00 0.00 0.00 88 1008.9
20260508102529 37 131 0.0 0.0 0.00 0.00 0.00 88 1008.8
20260508102025 37 131 0.0 0.0 0.00 0.00 0.00 87 1008.7
20260508101523 37 131 0.0 0.0 0.00 0.00 0.00 87 1008.6
20260508101026 37 131 0.0 0.0 0.00 0.00 0.00 87 1008.5
20260508100522 36 131 0.0 0.0 0.00 0.00 0.00 87 1008.5
20260508100021 36 131 0.0 0.0 0.00 0.00 0.00 87 1008.5
20260508095521 36 131 0.0 0.0 0.00 0.00 0.00 87 1008.4
20260508095120 36 131 0.0 0.0 0.00 0.00 0.00 87 1008.4
20260508094522 36 131 0.0 0.0 0.00 0.00 0.00 87 1008.3
20260508094018 36 131 0.0 0.0 0.00 0.00 0.00 87 1008.2
20260508093518 36 131 0.0 0.0 0.00 0.00 0.00 86 1008.3
20260508093028 36 131 0.0 0.0 0.00 0.00 0.00 86 1008.2
20260508092515 36 131 0.0 0.0 0.00 0.00 0.00 85 1008.2
20260508092017 36 131 0.0 1.0 0.00 0.00 0.00 85 1008.2
20260508091515 37 131 0.0 1.0 0.00 0.00 0.00 84 1008.1
20260508091013 37 143 0.0 1.0 0.00 0.00 0.00 84 1008.1
20260508090513 37 147 0.0 1.0 0.00 0.00 0.00 84 1008.1
20260508090011 37 147 0.0 1.0 0.00 0.00 0.00 83 1008.1
20260508085515 37 147 0.0 0.0 0.00 0.00 0.00 84 1008.1
20260508085010 37 147 0.0 0.0 0.00 0.00 0.00 85 1008.0
20260508084510 37 147 0.0 0.0 0.00 0.00 0.00 85 1008.0
20260508084009 38 147 0.0 1.0 0.00 0.00 0.00 84 1008.0
20260508083509 38 147 0.0 1.0 0.00 0.00 0.00 84 1008.1
20260508083007 38 146 0.0 1.0 0.00 0.00 0.00 83 1007.9
20260508082510 38 139 0.0 1.0 0.00 0.00 0.00 82 1007.9
20260508082008 38 139 0.0 2.0 0.00 0.00 0.00 81 1007.9
20260508081509 38 136 0.0 2.0 0.00 0.00 0.00 80 1007.9
20260508081004 38 111 0.0 1.0 0.00 0.00 0.00 80 1007.8
20260508080503 38 106 0.0 1.0 0.00 0.00 0.00 82 1007.7
20260508080003 38 71 0.0 1.0 0.00 0.01 0.00 82 1007.6
20260508075501 39 71 0.0 1.0 0.00 0.01 0.00 81 1007.3
20260508075002 39 71 0.0 1.0 0.00 0.01 0.00 81 1007.3
20260508074600 39 71 0.0 2.0 0.00 0.01 0.00 80 1007.2
20260508074059 39 67 0.0 2.0 0.00 0.01 0.00 80 1007.1
20260508073559 39 272 0.0 2.0 0.00 0.01 0.00 79 1007.1
20260508073058 40 272 0.0 2.0 0.00 0.01 0.00 78 1007.0
20260508072557 40 272 0.0 2.0 0.00 0.01 0.00 78 1007.1
20260508072057 40 272 0.0 1.0 0.00 0.01 0.00 77 1007.0
20260508071556 40 272 0.0 1.0 0.00 0.01 0.00 78 1007.0
20260508071055 40 272 0.0 1.0 0.00 0.01 0.00 78 1007.0
20260508070558 40 272 0.0 1.0 0.00 0.01 0.00 77 1007.0
20260508070053 40 272 0.0 1.0 0.00 0.01 0.00 76 1006.9
20260508065555 41 272 0.0 2.0 0.00 0.01 0.00 76 1007.0
20260508065052 41 271 0.0 2.0 0.00 0.01 0.00 74 1007.0
20260508064552 41 272 1.0 2.0 0.00 0.01 0.00 75 1007.0
20260508064051 41 271 0.0 2.0 0.00 0.01 0.00 74 1006.9
20260508063551 41 271 1.0 2.0 0.00 0.01 0.00 75 1007.0
20260508063102 41 271 1.0 2.0 0.00 0.01 0.00 77 1007.0
20260508062553 41 271 0.0 2.0 0.00 0.01 0.00 77 1007.0
20260508062049 41 271 0.0 2.0 0.00 0.01 0.00 77 1007.0
20260508061549 41 272 0.0 2.0 0.00 0.01 0.00 78 1007.1
20260508061047 41 272 0.0 2.0 0.00 0.01 0.00 77 1007.1
20260508060545 41 271 1.0 2.0 0.00 0.01 0.00 75 1007.1
20260508060046 41 271 0.0 2.0 0.00 0.01 0.00 76 1007.2
20260508055543 42 271 1.0 2.0 0.00 0.01 0.00 75 1007.2
20260508055042 42 271 1.0 2.0 0.00 0.01 0.00 74 1007.3
20260508054541 42 271 1.0 2.0 0.00 0.01 0.00 72 1007.3
20260508054040 42 270 1.0 2.0 0.00 0.01 0.00 71 1007.3
20260508053539 42 270 1.0 2.0 0.00 0.01 0.00 72 1007.4
20260508053039 42 273 1.0 2.0 0.00 0.01 0.00 72 1007.4
20260508052538 43 273 1.0 2.0 0.00 0.01 0.00 72 1007.4
20260508052036 43 273 0.0 2.0 0.00 0.01 0.00 72 1007.5
20260508051537 43 273 0.0 2.0 0.00 0.01 0.00 71 1007.6
20260508051036 43 273 1.0 2.0 0.00 0.01 0.00 69 1007.5
20260508050533 44 281 0.0 2.0 0.00 0.01 0.00 68 1007.6
20260508050036 44 291 0.0 1.0 0.00 0.01 0.00 68 1007.6
20260508045531 44 291 0.0 1.0 0.00 0.01 0.00 68 1007.6
20260508045031 44 291 0.0 1.0 0.00 0.01 0.00 67 1007.7
20260508044533 44 291 0.0 1.0 0.00 0.01 0.00 68 1007.7
20260508044031 44 291 0.0 1.0 0.00 0.01 0.00 69 1007.8
20260508043530 45 291 0.0 2.0 0.00 0.01 0.00 68 1007.8
20260508043038 45 291 0.0 2.0 0.00 0.01 0.00 68 1007.8
20260508042529 45 272 1.0 2.0 0.00 0.01 0.00 68 1007.8
20260508042027 44 271 1.0 2.0 0.00 0.01 0.00 67 1007.8
20260508041527 44 269 1.0 2.0 0.00 0.01 0.00 71 1007.8
20260508041026 44 265 0.0 1.0 0.00 0.01 0.00 72 1007.9
20260508040525 44 265 0.0 1.0 0.00 0.01 0.00 74 1007.8
20260508040033 44 265 0.0 1.0 0.00 0.01 0.01 73 1007.8
20260508035524 44 265 0.0 1.0 0.00 0.01 0.01 71 1007.8
20260508035023 44 265 0.0 1.0 0.00 0.01 0.01 73 1007.8
20260508034522 45 265 0.0 0.0 0.00 0.01 0.01 73 1007.8
20260508034020 45 265 0.0 0.0 0.00 0.01 0.01 73 1007.8
20260508033519 45 265 0.0 1.0 0.00 0.01 0.01 72 1007.7
20260508033018 46 265 0.0 1.0 0.00 0.01 0.01 70 1007.8
20260508032518 46 265 0.0 2.0 0.00 0.01 0.01 68 1007.8
20260508032017 46 265 0.0 2.0 0.00 0.01 0.01 67 1007.7
20260508031517 46 265 0.0 2.0 0.00 0.01 0.01 69 1007.7
20260508031016 46 265 0.0 2.0 0.00 0.01 0.01 69 1007.6
20260508030515 46 265 0.0 2.0 0.00 0.01 0.01 69 1007.6
20260508030015 46 265 0.0 2.0 0.00 0.01 0.01 70 1007.7
20260508025514 46 265 0.0 1.0 0.00 0.01 0.01 70 1007.6
20260508025014 47 265 0.0 1.0 0.00 0.01 0.01 70 1007.6
20260508024514 47 265 0.0 1.0 0.00 0.01 0.01 69 1007.6
20260508024013 47 265 0.0 1.0 0.00 0.01 0.01 66 1007.6
20260508023513 47 265 0.0 1.0 0.00 0.01 0.01 67 1007.6
20260508023013 47 265 0.0 0.0 0.00 0.01 0.01 68 1007.5
20260508022512 47 265 0.0 1.0 0.00 0.01 0.01 70 1007.5
20260508022012 47 265 0.0 1.0 0.00 0.01 0.01 68 1007.5
20260508021512 47 265 0.0 1.0 0.00 0.01 0.01 69 1007.5
20260508021013 47 265 0.0 1.0 0.00 0.01 0.01 70 1007.5
20260508020510 47 265 0.0 1.0 0.00 0.01 0.01 70 1007.3
20260508020009 47 265 0.0 1.0 0.00 0.01 0.01 69 1007.3
20260508015511 47 265 0.0 1.0 0.00 0.01 0.01 69 1007.3
20260508015008 47 265 0.0 1.0 0.00 0.01 0.01 67 1007.2
20260508014511 47 265 0.0 1.0 0.00 0.01 0.01 62 1007.1
20260508014008 47 265 0.0 1.0 0.00 0.01 0.01 64 1007.1
20260508013506 47 265 0.0 1.0 0.00 0.01 0.01 64 1007.0
20260508013006 47 265 0.0 1.0 0.00 0.01 0.01 65 1006.9
20260508012510 48 265 0.0 0.0 0.00 0.01 0.01 65 1006.7
20260508012006 48 265 0.0 1.0 0.00 0.01 0.01 66 1006.8
20260508011506 48 265 0.0 1.0 0.00 0.01 0.01 62 1006.7
20260508011006 48 265 0.0 1.0 0.00 0.01 0.01 64 1006.6
20260508010505 48 265 0.0 1.0 0.00 0.01 0.01 62 1006.6
20260508010006 48 265 0.0 1.0 0.00 0.01 0.01 58 1006.5
20260508005507 49 265 0.0 0.0 0.00 0.01 0.01 60 1006.6
20260508005007 49 265 0.0 0.0 0.00 0.01 0.01 63 1006.5
20260508004509 49 265 0.0 0.0 0.00 0.01 0.01 62 1006.4
20260508004005 50 265 0.0 0.0 0.00 0.01 0.01 62 1006.3
20260508003504 50 265 0.0 1.0 0.00 0.01 0.01 60 1006.2
20260508003006 50 265 0.0 1.0 0.00 0.01 0.01 56 1006.3
20260508002504 51 265 0.0 1.0 0.00 0.01 0.01 57 1006.2
20260508002004 51 265 0.0 1.0 0.00 0.01 0.01 57 1006.1
20260508001510 52 265 0.0 1.0 0.00 0.01 0.01 56 1006.1
20260508001004 52 265 0.0 1.0 0.00 0.01 0.01 53 1006.0
20260508000507 52 265 0.0 1.0 0.00 0.01 0.01 58 1006.0
20260508000004 53 265 0.0 1.0 0.00 0.02 0.01 50 1005.9
20260507235504 53 265 0.0 1.0 0.00 0.02 0.01 53 1005.8
20260507235005 53 265 0.0 2.0 0.00 0.02 0.01 54 1005.8
20260507234503 54 265 0.0 2.0 0.00 0.02 0.01 52 1005.7
20260507234050 54 238 0.0 1.0 0.00 0.02 0.01 50 1005.7
20260507233503 54 221 0.0 2.0 0.00 0.02 0.01 45 1005.7
20260507233008 55 228 0.0 2.0 0.00 0.02 0.01 45 1005.8
20260507232504 55 315 0.0 2.0 0.00 0.02 0.01 46 1005.7
20260507232002 55 314 0.0 2.0 0.00 0.02 0.01 41 1005.6
20260507231502 56 319 0.0 4.0 0.00 0.02 0.01 45 1005.6
20260507231002 57 250 0.0 4.0 0.00 0.02 0.01 41 1005.5
20260507230503 57 281 0.0 4.0 0.00 0.02 0.01 40 1005.6
20260507230005 57 149 0.0 4.0 0.00 0.03 0.01 40 1005.5
20260507225501 57 30 1.0 5.0 0.00 0.03 0.01 39 1005.5
20260507225001 57 287 1.0 4.0 0.00 0.03 0.01 40 1005.4
20260507224503 57 153 0.0 4.0 0.00 0.03 0.01 38 1005.4
20260507224002 57 257 1.0 7.0 0.00 0.03 0.01 38 1005.3
20260507223501 58 211 2.0 7.0 0.00 0.03 0.01 37 1005.2
20260507223001 58 320 2.0 5.0 0.00 0.03 0.01 37 1005.2
20260507222601 58 330 2.0 8.0 0.00 0.03 0.01 36 1005.2
20260507222100 59 317 2.0 8.0 0.00 0.03 0.01 38 1005.1
20260507221600 59 207 1.0 6.0 0.00 0.03 0.01 38 1005.1
20260507221159 59 227 2.0 7.0 0.00 0.03 0.01 34 1005.0
20260507220601 59 236 2.0 7.0 0.00 0.03 0.01 37 1005.0
20260507220059 60 301 3.0 6.0 0.00 0.06 0.01 35 1005.0
20260507215601 60 163 1.0 6.0 0.00 0.06 0.01 37 1004.9
20260507215059 59 234 2.0 7.0 0.00 0.06 0.01 35 1004.8
20260507214602 59 325 2.0 7.0 0.00 0.06 0.01 35 1004.8
20260507214059 60 263 1.0 6.0 0.00 0.06 0.01 36 1004.9
20260507213559 60 338 1.0 7.0 0.00 0.06 0.01 37 1004.9
20260507213058 60 252 2.0 7.0 0.00 0.06 0.01 35 1004.7
20260507212559 60 40 0.0 6.0 0.00 0.06 0.01 36 1004.7
20260507212057 60 320 1.0 6.0 0.00 0.06 0.01 37 1004.9
20260507211558 61 143 2.0 8.0 0.00 0.06 0.01 37 1004.8
20260507211058 61 239 4.0 8.0 0.00 0.06 0.01 35 1004.8
20260507210600 61 261 4.0 9.0 0.00 0.06 0.01 36 1004.8
20260507210056 61 17 2.0 10.0 0.00 0.11 0.01 34 1004.7
20260507205556 61 248 4.0 10.0 0.00 0.11 0.01 35 1004.7
20260507205056 61 132 4.0 8.0 0.00 0.11 0.01 36 1004.6
20260507204559 60 18 3.0 6.0 0.00 0.11 0.01 36 1004.7
20260507204156 60 309 2.0 7.0 0.00 0.11 0.01 35 1004.7
20260507203556 61 14 3.0 11.0 0.00 0.11 0.01 36 1004.7
20260507203055 61 271 3.0 11.0 0.00 0.11 0.01 35 1004.7
20260507202559 62 173 4.0 11.0 0.00 0.11 0.01 36 1004.6
20260507202055 61 236 2.0 11.0 0.00 0.11 0.01 37 1004.7
20260507201559 61 320 1.0 7.0 0.00 0.11 0.01 35 1004.7
20260507201055 61 26 2.0 8.0 0.00 0.11 0.01 38 1004.7
20260507200554 61 259 3.0 8.0 0.00 0.11 0.01 36 1004.8
20260507200103 61 215 4.0 8.0 0.00 0.14 0.01 39 1004.7
20260507195553 62 236 1.0 8.0 0.00 0.14 0.01 37 1004.7
20260507195053 61 206 3.0 8.0 0.00 0.14 0.01 38 1004.7
20260507194553 61 258 2.0 5.0 0.00 0.14 0.01 40 1004.8
20260507194052 61 271 1.0 6.0 0.00 0.14 0.01 35 1004.8
20260507193552 61 229 2.0 7.0 0.00 0.14 0.01 37 1005.0
20260507193053 61 311 3.0 8.0 0.00 0.14 0.01 36 1005.0
20260507192551 62 226 2.0 9.0 0.00 0.14 0.01 36 1005.0
20260507192054 61 325 1.0 9.0 0.00 0.14 0.01 36 1004.9
20260507191555 62 360 3.0 8.0 0.00 0.14 0.01 36 1005.0
20260507191049 63 313 4.0 9.0 0.00 0.14 0.01 32 1005.1
20260507190549 63 85 3.0 9.0 0.00 0.14 0.01 34 1005.2
20260507190054 63 233 3.0 9.0 0.00 0.25 0.01 35 1005.2
20260507185548 63 292 5.0 9.0 0.00 0.25 0.01 32 1005.0
20260507185047 63 210 2.0 8.0 0.00 0.25 0.01 35 1005.3
20260507184550 62 336 3.0 7.0 0.00 0.25 0.01 37 1005.3
20260507184047 62 306 3.0 9.0 0.00 0.25 0.01 37 1005.5
20260507183546 63 185 4.0 7.0 0.00 0.25 0.01 34 1005.7
20260507183047 62 263 3.0 6.0 0.00 0.25 0.01 39 1005.5
20260507182546 62 296 2.0 7.0 0.00 0.25 0.01 35 1005.6
20260507182045 62 302 2.0 7.0 0.00 0.25 0.01 34 1005.6
20260507181549 62 244 4.0 7.0 0.00 0.25 0.01 35 1005.6
20260507181045 63 215 3.0 9.0 0.00 0.25 0.01 33 1005.8
20260507180545 63 36 2.0 9.0 0.00 0.25 0.01 35 1005.8
20260507180044 63 217 3.0 8.0 0.00 0.34 0.01 38 1005.8
20260507175543 63 229 4.0 9.0 0.00 0.34 0.01 35 1005.8
20260507175043 64 194 4.0 9.0 0.00 0.34 0.01 37 1005.8
20260507174547 64 238 4.0 8.0 0.00 0.34 0.01 44 1005.7
20260507174042 63 250 2.0 11.0 0.00 0.34 0.01 42 1005.6
20260507173542 63 239 4.0 12.0 0.00 0.34 0.01 38 1005.7
20260507173041 63 232 6.0 12.0 0.00 0.34 0.01 38 1005.6
20260507172542 62 314 3.0 9.0 0.00 0.34 0.01 36 1005.7
20260507172042 62 283 4.0 9.0 0.00 0.34 0.01 38 1005.7
20260507171541 62 290 4.0 10.0 0.00 0.34 0.01 33 1005.7
20260507171040 63 229 2.0 8.0 0.00 0.34 0.01 44 1005.8
20260507170539 62 343 2.0 7.0 0.00 0.34 0.01 39 1005.9
20260507170045 62 321 4.0 11.0 0.00 0.34 0.01 39 1006.0
20260507165538 62 317 2.0 11.0 0.00 0.34 0.01 40 1006.0
20260507165039 62 311 3.0 11.0 0.00 0.34 0.01 34 1006.1
20260507164538 63 268 2.0 7.0 0.00 0.34 0.01 37 1006.1
20260507164040 62 333 4.0 7.0 0.00 0.34 0.01 43 1006.1
20260507163536 61 305 1.0 7.0 0.00 0.34 0.01 44 1006.2
20260507163036 61 44 3.0 7.0 0.00 0.34 0.01 39 1006.2
20260507162535 61 279 3.0 9.0 0.00 0.34 0.01 45 1006.2
20260507162035 61 342 2.0 7.0 0.00 0.34 0.01 44 1006.4
20260507161534 61 321 4.0 7.0 0.00 0.34 0.01 42 1006.4
20260507161034 60 277 3.0 7.0 0.00 0.34 0.01 44 1006.4
20260507160534 61 325 4.0 9.0 0.00 0.34 0.01 45 1006.5
20260507160034 61 317 3.0 9.0 0.00 0.34 0.01 47 1006.4
20260507155533 60 209 4.0 8.0 0.00 0.34 0.01 45 1006.5
20260507155128 60 300 2.0 7.0 0.00 0.34 0.01 42 1006.3
20260507154528 60 322 2.0 8.0 0.00 0.34 0.01 50 1006.5
20260507154028 60 310 3.0 8.0 0.00 0.34 0.01 49 1006.5
20260507153526 59 259 3.0 7.0 0.00 0.34 0.01 51 1006.6
20260507153028 60 17 3.0 9.0 0.00 0.34 0.01 50 1006.7
20260507152526 60 349 4.0 9.0 0.00 0.34 0.01 49 1006.6
20260507152025 59 91 2.0 7.0 0.00 0.34 0.01 50 1006.7
20260507151521 59 5 2.0 8.0 0.00 0.34 0.01 50 1006.8
20260507151022 58 202 3.0 8.0 0.00 0.34 0.01 52 1006.8
20260507150521 58 5 2.0 5.0 0.00 0.34 0.01 58 1006.8
20260507150020 58 344 1.0 7.0 0.00 0.34 0.01 59 1006.8
20260507145519 58 284 2.0 7.0 0.00 0.34 0.01 59 1006.7
20260507145018 57 187 0.0 6.0 0.00 0.34 0.01 63 1006.9
20260507144518 56 141 2.0 6.0 0.00 0.34 0.01 61 1006.9
20260507144018 56 248 3.0 6.0 0.00 0.34 0.01 64 1007.0
20260507143517 57 263 1.0 6.0 0.00 0.34 0.01 62 1006.9
20260507143019 56 236 3.0 7.0 0.00 0.34 0.01 61 1006.9